Location: Bazinghen
(50.8246°N, 1.6616°E)
Time: 02:14:16
(UTC+00:00)

STARLINK-1210 - Pass Details

Date: 09 April 2020
Orbit: 548 x 551 km, 53.0° (Epoch: 03 June)

Event Time Altitude Azimuth Distance (km) Brightness Sun altitude
Rises 20:02:15 0° 289° (WNW) 2,715 9.0 -12.9°
Reaches altitude 10° 20:04:43 10° 278° (W) 1,818 7.4 -13.2°
Maximum altitude 20:08:13 27° 220° (SW) 1,063 5.1 -13.7°
Enters shadow 20:10:58 14° 168° (SSE) 1,566 5.5 -14.0°
